Change the Weather History Date:

Friday, November 9, 2012

  Actual Average Record
Temperature  
Mean Temperature 38 °F -  
Max Temperature 43 °F 40 °F 68 °F (2011)
Min Temperature 33 °F 23 °F 10 °F (2004)
Degree Days  
Heating Degree Days 27    
Moisture  
Dew Point 27 °F    
Average Humidity 68    
Maximum Humidity 82    
Minimum Humidity 45    
Precipitation  
Precipitation 0.00 in - - ()
Sea Level Pressure  
Sea Level Pressure 29.96 in    
Wind  
Wind Speed 7 mph (NW)    
Max Wind Speed 12 mph    
Max Gust Speed 20 mph    
Visibility 10 miles    
Events      
Averages and records for this station are not official NWS values.
T = Trace of Precipitation, MM = Missing Value Source: NWS Daily Summary

Daily Weather History Graph

Daily Weather History Graph

Search for Another Location

Airport or City:

Trip Planner

Search our weather history database for the weather conditions in past years. The results will help you decide how hot, cold, wet, or windy it might be!

Date:

Astronomy

Nov. 09, 2012 Rise Set
Actual Time 6:33 AM EST 4:22 PM EST
Civil Twilight 6:02 AM EST 4:53 PM EST
Nautical Twilight 5:27 AM EST 5:28 PM EST
Astronomical Twilight 4:53 AM EST 6:02 PM EST
Moon 1:18 AM EST (11/9) 1:44 PM EST (11/9)
Length of Visible Light 10h 51m
Length of Day
9h 49m
Waning Crescent, 23% of the Moon is Illuminated
Nov 9
Waning Crescent
Nov 13
New
Nov 20
First Quarter
Nov 28
Full
Dec 6
Last Quarter

Hourly Weather History & Observations

Time (EST) Temp. Windchill Dew Point Humidity Pressure Visibility Wind Dir Wind Speed Gust Speed Precip Events Conditions
12:10 AM 33.8 °F 27.0 °F 26.6 °F 75% 29.83 in 10.0 mi NNW 8.1 mph - N/A   Overcast
12:52 AM 33.1 °F 26.9 °F 27.0 °F 78% 29.87 in 10.0 mi NNW 6.9 mph - N/A   Overcast
1:52 AM 33.1 °F 27.7 °F 27.0 °F 78% 29.88 in 10.0 mi NNW 5.8 mph - N/A   Overcast
2:52 AM 33.1 °F 26.1 °F 27.0 °F 78% 29.87 in 10.0 mi NW 8.1 mph - N/A   Overcast
3:52 AM 33.1 °F 26.1 °F 28.0 °F 82% 29.88 in 10.0 mi NW 8.1 mph - N/A   Overcast
4:52 AM 33.1 °F 27.7 °F 27.0 °F 78% 29.89 in 10.0 mi NNW 5.8 mph - N/A   Overcast
5:52 AM 33.1 °F 24.4 °F 27.0 °F 78% 29.91 in 10.0 mi NNW 11.5 mph 18.4 mph 0.00 in   Overcast
6:52 AM 33.1 °F 24.9 °F 27.0 °F 78% 29.95 in 10.0 mi NW 10.4 mph 19.6 mph 0.00 in   Overcast
7:52 AM 34.0 °F 27.2 °F 27.0 °F 75% 29.95 in 10.0 mi NNW 8.1 mph - N/A   Overcast
8:24 AM 33.8 °F 26.4 °F 26.6 °F 75% 29.92 in 10.0 mi NNW 9.2 mph - N/A   Scattered Clouds
8:45 AM 35.6 °F 27.5 °F 26.6 °F 70% 29.93 in 10.0 mi North 11.5 mph - N/A   Mostly Cloudy
8:52 AM 35.1 °F 28.6 °F 27.0 °F 72% 29.97 in 10.0 mi NNW 8.1 mph - N/A   Mostly Cloudy
9:52 AM 37.0 °F 31.6 °F 27.0 °F 67% 29.96 in 10.0 mi WNW 6.9 mph - N/A   Overcast
10:30 AM 35.6 °F 30.7 °F 26.6 °F 70% 29.92 in 10.0 mi West 5.8 mph - N/A   Scattered Clouds
10:52 AM 37.9 °F 33.5 °F 28.0 °F 68% 29.95 in 10.0 mi Variable 5.8 mph - N/A   Scattered Clouds
11:52 AM 39.0 °F 33.4 °F 28.0 °F 65% 29.94 in 10.0 mi NW 8.1 mph 16.1 mph N/A   Clear
12:52 PM 41.0 °F 35.8 °F 26.1 °F 55% 29.95 in 10.0 mi West 8.1 mph - N/A   Clear
1:52 PM 43.0 °F 39.5 °F 24.1 °F 47% 29.94 in 10.0 mi WNW 5.8 mph - N/A   Clear
2:52 PM 41.0 °F 36.4 °F 21.0 °F 45% 29.97 in 10.0 mi Variable 6.9 mph 19.6 mph N/A   Clear
3:52 PM 39.9 °F 35.1 °F 19.9 °F 45% 29.99 in 10.0 mi Variable 6.9 mph 16.1 mph N/A   Overcast
4:52 PM 39.0 °F 34.0 °F 24.1 °F 55% 30.01 in 10.0 mi Variable 6.9 mph - N/A   Overcast
5:52 PM 39.0 °F 33.4 °F 25.0 °F 57% 30.01 in 10.0 mi WNW 8.1 mph - N/A   Overcast
6:49 PM 37.4 °F - 26.6 °F 65% 29.99 in 10.0 mi Calm Calm - N/A   Mostly Cloudy
6:52 PM 37.9 °F - 26.1 °F 62% 30.04 in 10.0 mi Calm Calm - N/A   Mostly Cloudy
7:52 PM 37.9 °F 33.5 °F 28.0 °F 68% 30.05 in 10.0 mi Variable 5.8 mph - N/A   Overcast
8:52 PM 37.9 °F 34.4 °F 28.9 °F 70% 30.06 in 10.0 mi Variable 4.6 mph - N/A   Overcast
9:52 PM 37.9 °F 32.1 °F 30.0 °F 73% 30.07 in 10.0 mi WNW 8.1 mph 17.3 mph N/A   Mostly Cloudy
10:52 PM 37.9 °F 32.7 °F 30.0 °F 73% 30.08 in 10.0 mi West 6.9 mph 19.6 mph N/A   Overcast
11:52 PM 37.9 °F 34.4 °F 30.0 °F 73% 30.08 in 10.0 mi West 4.6 mph - N/A   Overcast